Stations météo

réclame
Mon MeteoGroup
Chamonix, France (7469): Température de l'air & dewpoint: 11.08.2019 15:00:00 - 17.08.2019 15:00:00 (CEST)Chamonix, France (7469): Vitesse du vent & gusts: 11.08.2019 15:00:00 - 17.08.2019 15:00:00 (CEST)Chamonix, France (7469): Direction du vent: 11.08.2019 15:00:00 - 17.08.2019 15:00:00 (CEST)Chamonix, France (7469): Quantités de précipitations: 11.08.2019 15:00:00 - 17.08.2019 15:00:00 (CEST)
Date & Time tt [°C] td [°C] ff [km/h] ff [knt] fx [km/h] fx [knt] dd rr [mm]
17.08.2019 15:00:00 - - - - - - - -
17.08.2019 14:00:00 26,4 6,9 4 2 18 10 SSE -
17.08.2019 13:00:00 25,8 5,4 5 3 21 11 S 0,0
17.08.2019 12:00:00 21,9 11,0 2 1 8 4 ESE 0,0
17.08.2019 11:00:00 18,2 9,0 0 0 8 4 N 0,0
17.08.2019 10:00:00 13,7 12,4 2 1 5 3 N 0,0
17.08.2019 09:00:00 9,0 8,7 0 0 4 2 N 0,0
17.08.2019 08:00:00 7,8 7,5 2 1 8 4 E -
17.08.2019 07:00:00 6,3 5,7 0 0 8 4 N 0,0
17.08.2019 06:00:00 6,6 6,0 2 1 4 2 NW 0,0
17.08.2019 05:00:00 6,8 6,2 0 0 5 3 N 0,0
17.08.2019 04:00:00 7,3 6,7 0 0 4 2 N 0,0
17.08.2019 03:00:00 7,8 7,0 0 0 4 2 N 0,0
17.08.2019 02:00:00 8,4 7,6 2 1 5 3 N -
17.08.2019 01:00:00 9,1 8,2 0 0 4 2 N 0,0
17.08.2019 00:00:00 9,9 8,8 2 1 5 3 E 0,0
16.08.2019 23:00:00 10,8 9,6 4 2 8 4 ENE 0,0
16.08.2019 22:00:00 11,8 10,4 4 2 8 4 NE 0,0
16.08.2019 21:00:00 13,2 10,6 0 0 5 3 N 0,0
16.08.2019 20:00:00 15,2 11,4 0 0 8 4 N -
16.08.2019 19:00:00 19,2 11,0 4 2 15 8 WNW 0,0
16.08.2019 18:00:00 23,3 8,9 5 3 21 11 SW 0,0
16.08.2019 17:00:00 24,0 9,9 8 4 28 15 S 0,0
16.08.2019 16:00:00 23,8 9,0 8 4 22 12 SW 0,0
16.08.2019 15:00:00 23,5 4,4 8 4 21 11 SW 0,0
16.08.2019 14:00:00 22,6 7,6 5 3 15 8 SSW -
16.08.2019 13:00:00 20,9 7,8 4 2 15 8 WSW 0,0
16.08.2019 12:00:00 18,8 6,9 4 2 13 7 SSW 0,0
16.08.2019 11:00:00 14,6 8,5 2 1 9 5 S 0,0
16.08.2019 10:00:00 10,2 9,9 2 1 8 4 E 0,0
16.08.2019 09:00:00 8,1 7,7 0 0 8 4 N 0,0
16.08.2019 08:00:00 7,8 7,4 0 0 5 3 N -
16.08.2019 07:00:00 7,8 7,2 0 0 5 3 N 0,0
16.08.2019 06:00:00 8,5 7,7 0 0 4 2 N 0,0
16.08.2019 05:00:00 9,6 8,8 0 0 9 5 N 0,0
16.08.2019 04:00:00 9,7 8,9 0 0 4 2 N 0,0
16.08.2019 03:00:00 9,8 8,6 0 0 4 2 N 0,0
16.08.2019 02:00:00 11,2 9,6 0 0 4 2 N -
16.08.2019 01:00:00 11,8 9,7 0 0 11 6 N 0,0
16.08.2019 00:00:00 13,8 9,6 2 1 13 7 SW 0,0
15.08.2019 23:00:00 14,9 10,1 5 3 15 8 WSW 0,0
15.08.2019 22:00:00 15,8 9,9 4 2 13 7 SSW 0,0
15.08.2019 21:00:00 16,7 10,3 4 2 26 14 S 0,0
15.08.2019 20:00:00 18,0 9,9 5 3 22 12 S -
15.08.2019 19:00:00 19,3 10,6 8 4 28 15 S 0,0
15.08.2019 18:00:00 21,8 10,0 5 3 28 15 SSE 0,0
15.08.2019 17:00:00 22,3 9,1 9 5 28 15 S 0,0
15.08.2019 16:00:00 23,3 8,2 8 4 26 14 SW 0,0
15.08.2019 15:00:00 23,0 7,9 8 4 24 13 S 0,0
15.08.2019 14:00:00 22,7 11,1 8 4 26 14 S -
15.08.2019 13:00:00 22,2 10,3 9 5 29 16 SSE 0,0
15.08.2019 12:00:00 20,5 9,1 5 3 21 11 SSE 0,0
15.08.2019 11:00:00 17,6 7,6 4 2 24 13 NNE 0,0
15.08.2019 10:00:00 13,5 9,9 2 1 8 4 SE 0,0
15.08.2019 09:00:00 11,7 10,8 2 1 8 4 N 0,0
15.08.2019 08:00:00 10,0 9,7 2 1 8 4 WNW -
15.08.2019 07:00:00 8,5 8,1 2 1 8 4 NNW 0,0
15.08.2019 06:00:00 8,0 7,6 0 0 5 3 N 0,2
15.08.2019 05:00:00 7,7 7,3 2 1 8 4 NNE 0,0
15.08.2019 04:00:00 7,1 6,5 0 0 8 4 N 0,0
15.08.2019 03:00:00 7,4 6,8 0 0 4 2 N 0,0
15.08.2019 02:00:00 7,5 6,8 0 0 8 4 N -
15.08.2019 01:00:00 8,0 7,2 0 0 4 2 N 0,0
15.08.2019 00:00:00 8,7 7,8 2 1 5 3 NE 0,0
14.08.2019 23:00:00 9,5 8,3 0 0 4 2 N 0,0
14.08.2019 22:00:00 10,8 8,9 0 0 4 2 N 0,0
14.08.2019 21:00:00 12,4 9,0 0 0 8 4 N 0,0
14.08.2019 20:00:00 16,4 9,1 4 2 9 5 WSW -
14.08.2019 19:00:00 19,2 7,0 4 2 24 13 WSW 0,0
14.08.2019 18:00:00 23,0 6,3 4 2 22 12 S 0,0
14.08.2019 17:00:00 23,0 7,5 4 2 21 11 S 0,0
14.08.2019 16:00:00 22,9 6,2 5 3 18 10 SSW 0,0
14.08.2019 15:00:00 - - - - - - - -
14.08.2019 14:00:00 20,2 7,6 4 2 18 10 SE -
14.08.2019 13:00:00 18,8 7,2 5 3 13 7 SW 0,0
14.08.2019 12:00:00 15,7 7,5 2 1 9 5 ESE 0,0
14.08.2019 11:00:00 11,7 8,5 0 0 8 4 N 0,0
14.08.2019 10:00:00 9,8 9,5 2 1 5 3 E 0,0
14.08.2019 09:00:00 8,0 7,7 0 0 4 2 N 0,0
14.08.2019 08:00:00 6,5 6,1 0 0 5 3 N -
14.08.2019 07:00:00 6,2 5,6 0 0 4 2 N 0,0
14.08.2019 06:00:00 7,0 6,3 0 0 4 2 N 0,0
14.08.2019 05:00:00 8,1 7,3 0 0 4 2 N 0,0
14.08.2019 04:00:00 9,4 8,9 0 0 4 2 N 0,0
14.08.2019 03:00:00 9,3 8,8 0 0 4 2 N 0,0
14.08.2019 02:00:00 8,9 8,4 0 0 5 3 N -
14.08.2019 01:00:00 8,5 7,9 2 1 5 3 E 0,0
14.08.2019 00:00:00 8,8 8,0 4 2 5 3 NW 0,0
13.08.2019 23:00:00 9,4 8,5 2 1 5 3 NW 0,0
13.08.2019 22:00:00 10,0 8,4 0 0 4 2 N 0,0
13.08.2019 21:00:00 11,6 8,8 0 0 8 4 N 0,0
13.08.2019 20:00:00 14,2 9,6 0 0 22 12 N -
13.08.2019 19:00:00 16,8 7,4 4 2 21 11 SW 0,0
13.08.2019 18:00:00 18,0 7,7 8 4 22 12 SW 0,0
13.08.2019 17:00:00 18,0 7,7 4 2 18 10 SSW 0,0
13.08.2019 16:00:00 18,3 8,8 5 3 21 11 S 0,0
13.08.2019 15:00:00 19,1 8,4 5 3 16 9 S 0,0
13.08.2019 14:00:00 19,1 8,7 4 2 18 10 SW -
13.08.2019 13:00:00 18,1 8,9 8 4 18 10 SSW 0,0
13.08.2019 12:00:00 16,5 10,1 2 1 9 5 SE 0,0
13.08.2019 11:00:00 14,1 11,6 0 0 8 4 N 0,0
13.08.2019 10:00:00 12,9 11,0 2 1 8 4 WSW 0,0
13.08.2019 09:00:00 12,2 11,1 0 0 9 5 N 0,0
13.08.2019 08:00:00 11,5 11,0 0 0 5 3 N -
13.08.2019 07:00:00 11,1 10,6 0 0 8 4 N 0,0
13.08.2019 06:00:00 11,3 11,0 0 0 5 3 N 0,0
13.08.2019 05:00:00 11,1 10,8 0 0 4 2 N 0,0
13.08.2019 04:00:00 10,7 10,2 0 0 5 3 N 0,0
13.08.2019 03:00:00 10,9 10,4 0 0 8 4 N 0,0
13.08.2019 02:00:00 11,2 10,7 0 0 4 2 N -
13.08.2019 01:00:00 11,0 10,5 2 1 4 2 NNW 0,0
13.08.2019 00:00:00 11,3 10,7 0 0 5 3 N 0,0
12.08.2019 23:00:00 11,4 10,5 0 0 8 4 N 0,0
12.08.2019 22:00:00 12,8 11,9 4 2 11 6 NE 0,0
12.08.2019 21:00:00 13,8 12,7 0 0 13 7 N 0,0
12.08.2019 20:00:00 14,5 12,9 4 2 11 6 WSW -
12.08.2019 19:00:00 14,8 13,5 4 2 21 11 WSW 0,6
12.08.2019 18:00:00 15,0 13,0 4 2 16 9 SW 0,0
12.08.2019 17:00:00 15,1 13,5 4 2 15 8 SSW 0,4
12.08.2019 16:00:00 14,6 13,5 0 0 18 10 N 0,8
12.08.2019 15:00:00 15,6 13,1 4 2 18 10 SSW 2,0
12.08.2019 14:00:00 18,4 12,2 9 5 22 12 WSW -
12.08.2019 13:00:00 18,6 13,5 4 2 9 5 SW 0,0
12.08.2019 12:00:00 15,4 13,9 2 1 22 12 SSE 0,0
12.08.2019 11:00:00 14,6 13,1 4 2 21 11 SSE 0,0
12.08.2019 10:00:00 14,8 14,2 2 1 18 10 SSE 4,0
12.08.2019 09:00:00 14,5 14,0 4 2 9 5 W 3,0
12.08.2019 08:00:00 14,4 13,9 2 1 8 4 NE -
12.08.2019 07:00:00 13,9 13,3 0 0 4 2 N 0,0
12.08.2019 06:00:00 14,0 13,4 0 0 5 3 N 0,0
12.08.2019 05:00:00 14,6 13,8 2 1 16 9 NNE 0,0
12.08.2019 04:00:00 14,8 14,0 4 2 13 7 SW 0,0
12.08.2019 03:00:00 14,9 13,9 4 2 13 7 WSW 0,0
12.08.2019 02:00:00 15,2 14,4 2 1 8 4 WSW -
12.08.2019 01:00:00 15,3 14,3 4 2 8 4 WSW 0,4
12.08.2019 00:00:00 15,7 14,6 0 0 11 6 N 0,2
11.08.2019 23:00:00 16,3 14,8 4 2 21 11 WNW 2,0
11.08.2019 22:00:00 17,6 15,0 8 4 16 9 WSW 0,0
11.08.2019 21:00:00 17,8 15,1 4 2 22 12 SSW 0,0
11.08.2019 20:00:00 18,9 15,4 11 6 24 13 SW -
11.08.2019 19:00:00 21,9 16,8 4 2 31 17 S 0,0
11.08.2019 18:00:00 23,9 15,7 9 5 22 12 S 0,0
11.08.2019 17:00:00 26,9 16,2 13 7 24 13 WSW 0,0
11.08.2019 16:00:00 27,8 15,8 5 3 35 19 SSW 0,0
11.08.2019 15:00:00 27,5 14,8 11 6 29 16 SW 0,0

tt = Température de l'air
td = dewpoint
ff = Vitesse du vent
fx = gusts
dd = Direction du vent
rr = Quantités de précipitations

stations d'obs. à proximité